Location: Bluevale
(43.8575°N, 81.2496°W)
Time: 22:37:49
(UTC+00:00)

Daily predictions for brighter satellites

Satellite Brightness Start Highest point End
(mag) Time Altitude Azimuth Time Altitude Azimuth Time Altitude Azimuth
Cosmos 2322 Rocket 3.8 12:03:51 10° WNW 12:06:55 15° W 12:10:04 10° SW
Cosmos 1174 4.3 12:01:46 10° NW 12:07:10 66° WSW 12:11:29 10° SSE
Cosmos 1484 Rocket 3.6 12:04:33 10° NNW 12:07:13 22° WNW 12:09:51 10° WSW
Helios 1A Rocket 4.4 12:06:13 10° WSW 12:07:46 13° W 12:09:19 10° WNW
Cosmos 2208 Rocket 3.9 12:02:48 10° SSW 12:08:01 75° WNW 12:13:12 10° NNE
USA 290 2.2 12:05:35 10° SSW 12:08:47 89° NW 12:12:02 10° NNE
Cosmos 1842 Rocket 4.4 12:05:16 10° N 12:09:29 53° ENE 12:13:43 10° SSE
USA 81 4.1 12:08:33 10° S 12:13:49 88° W 12:19:07 10° N
Cosmos 2298 Rocket 4.2 12:09:33 10° NNW 12:14:54 84° ENE 12:20:11 10° SSE
Meteor 1-5 Rocket 4.2 12:10:18 10° S 12:15:41 89° E 12:21:01 10° N
IRIDIUM 106 4.3 22:18:11 10° N 22:23:23 67° E 22:28:34 10° SSE
Cosmos 1867 3.7 22:19:04 10° NW 22:24:33 84° SW 22:29:59 10° SSE
UNK 4.0 22:21:27 10° NNE 22:25:55 50° E 22:30:18 10° S
Cosmos 1743 3.3 22:23:24 10° NNW 22:26:33 50° W 22:29:40 10° S
Cosmos 2266 Rocket 3.9 22:21:38 10° N 22:27:46 77° E 22:33:48 10° SSE
CORIOLIS 4.2 22:22:45 10° SSE 22:27:58 58° ENE 22:33:13 10° N
YAOGAN 1 4.3 22:27:50 10° E 22:29:30 12° ENE 22:31:10 10° NE
Cosmos 1602 Rocket 3.8 22:25:18 10° NNW 22:29:40 73° W 22:33:58 10° S
Cosmos 1933 3.1 22:26:11 10° S 22:30:00 73° E 22:33:49 10° NNE
Cosmos 1844 Rocket 4.4 22:29:34 10° NNE 22:32:07 13° NE 22:34:40 10° ENE
Cosmos 1980 Rocket 2.5 22:27:26 10° S 22:32:52 50° ESE 22:38:18 10° NE
IRS-1C 4.4 22:29:11 10° SE 22:34:14 47° ENE 22:39:20 10° N
NOSS 3-2 (C) 4.1 22:29:56 10° WSW 22:34:46 43° NW 22:40:32 10° NNE
Lacrosse 5 rocket 3.4 22:33:59 10° NNW 22:34:49 11° N 22:35:39 10° NNE
CBERS-1 4.2 22:30:36 10° S 22:35:42 79° WSW 22:40:50 10° NNW
Cosmos 2219 3.8 22:32:11 10° N 22:37:28 36° NE 22:42:42 10° ESE
Cosmos 1484 Rocket 3.5 22:37:05 10° S 22:40:28 50° W 22:43:53 10° NNW
Cosmos 2263 Rocket 2.3 22:36:16 10° NNW 22:41:51 54° ENE 22:47:25 10° SE
Okean 1-7 Rocket 3.7 22:38:55 10° N 22:43:18 78° W 22:47:38 10° S
CZ-4C R/B 3.6 22:37:41 10° NW 22:44:55 65° WSW 22:53:39 10° SSE
SJ-12 4.0 22:41:24 10° SE 22:44:59 44° ENE 22:48:36 10° N
SPOT 1/Viking Rocket 4.3 22:40:46 10° SE 22:45:14 30° ENE 22:49:43 10° N
USA 308 4.5 22:45:26 10° SE 22:46:44 12° ESE 22:47:47 11° ESE
COSMOS 2455 4.0 22:44:11 10° SSE 22:48:52 24° ESE 22:52:27 14° ENE
SMAP 3.0 22:45:45 10° SSE 22:50:24 86° ENE 22:55:05 10° NNW
Cosmos 1538 Rocket 4.1 22:46:55 10° NNW 22:52:11 59° ENE 22:57:26 10° SSE
MOS 1 Rocket 3.6 22:47:31 10° SSE 22:52:21 53° ENE 22:57:27 10° N
Meteor 1-5 Rocket 4.1 22:47:36 10° N 22:53:00 72° E 22:58:32 10° SSE
Cosmos 2369 4.2 22:48:06 10° S 22:53:25 41° ESE 22:58:20 12° NE
Landsat 7 3.7 22:49:29 10° SSE 22:54:07 73° ENE 22:58:46 10° N
COSMO-SKYMED 1 3.9 22:53:03 16° ENE 22:54:16 18° E 22:57:08 10° SE
Cosmos 1953 Rocket 3.6 22:50:34 10° N 22:54:58 59° E 22:59:22 10° SSE
Cosmos 1805 3.8 22:52:10 10° NNE 22:55:03 26° ENE 22:57:55 10° SE
Cosmos 1825 Rocket 3.9 22:57:35 10° NNW 23:01:54 67° W 23:06:09 10° S
Cosmos 1076 Rocket 3.4 22:57:38 10° N 23:01:58 77° E 23:06:17 10° SSE
SAR-Lupe-3 4.4 23:02:29 29° E 23:02:45 30° E 23:04:59 10° SSE
Cosmos 2227 Rocket 2.8 22:58:41 10° NNW 23:04:14 60° WSW 23:09:46 10° S
NOSS 2-3 (C) 3.8 23:01:43 10° WSW 23:05:03 46° NW 23:07:57 14° NNE
Thor Agena Rocket 4.3 23:02:35 10° S 23:07:41 57° WSW 23:12:45 10° NNW
Cosmos 1697 Rocket 3.9 23:06:41 10° SW 23:11:54 39° WNW 23:17:09 10° NNE
Cosmos 2221 4.5 23:09:24 10° SE 23:09:58 12° ESE 23:09:58 12° ESE
Cosmos 372 Rocket 3.9 23:06:58 10° SSW 23:12:07 86° ESE 23:17:16 10° NNE
Cosmos 1898 Rocket 3.4 23:10:37 10° SSW 23:15:44 75° ESE 23:20:26 13° NNE
ERS-1 4.4 23:11:41 10° SSE 23:16:41 89° W 23:21:40 10° NNW
BREEZE-M DEB (TANK) 4.0 23:13:20 10° WNW 23:16:55 59° NNE 23:25:47 15° E
Spot 4 Rocket 4.3 23:13:37 10° SE 23:18:23 41° ENE 23:23:09 10° N
SL-16 R/B 4.1 23:17:09 10° N 23:22:36 33° WNW 23:28:01 10° SW
IRS-P3 4.1 23:17:52 10° SSE 23:23:11 88° ENE 23:28:32 10° NNW
BREEZE-M DEB (TANK) 4.5 23:15:59 10° SW 23:24:18 39° SSE 23:26:18 26° E
Cosmos 2333 Rocket 3.5 23:20:57 10° SSE 23:24:52 21° ESE 23:24:52 21° ESE
CZ-4 R/B 4.2 23:21:31 10° SSE 23:25:24 65° ENE 23:29:20 10° N
Helios 1A Rocket 4.4 23:28:50 16° SE 23:28:50 16° SE 23:29:51 10° SSE
Okean 1 2.9 23:23:42 10° S 23:27:16 73° E 23:29:13 25° NNE
Cosmos 1937 Rocket 3.4 23:24:05 10° S 23:29:14 72° ESE 23:32:50 20° NNE
Cosmos 2058 Rocket 3.1 23:26:13 10° S 23:30:41 81° W 23:35:11 10° N
Cosmos 2322 Rocket 3.8 23:28:30 10° SE 23:30:37 16° ESE 23:30:37 16° ESE
Cosmos 923 Rocket 3.9 23:28:19 10° NNW 23:33:28 59° ENE 23:38:32 10° SE
USA 238 DEB 4.0 23:30:10 10° SW 23:36:09 56° NW 23:41:16 17° NNE
USA 238 4.0 23:30:15 10° SW 23:36:16 57° NW 23:41:22 17° NNE
Cosmos-2242 3.2 23:34:00 10° SSW 23:38:13 72° W 23:42:18 11° N
Cosmos 967 Rocket 4.4 23:32:05 10° SSW 23:38:25 80° ESE 23:42:26 25° NE
USA 215 4.4 23:36:57 21° NE 23:39:41 28° N 23:45:04 10° NW
GEOS 3 Rocket 4.3 23:37:59 18° NNE 23:41:52 52° NW 23:47:03 10° WSW
Meteor 1-14 Rocket 4.5 23:37:13 10° N 23:42:39 42° ENE 23:47:56 10° SE
MINOTAUR IV R/B 4.4 23:39:06 10° NNW 23:43:30 69° ENE 23:46:23 21° SE
SL-24 R/B - RUBIN 2 3.8 23:42:06 10° SSW 23:47:35 84° ESE 23:49:23 41° NE
Cosmos 44 Rocket 4.0 23:42:49 10° NNW 23:47:13 36° NE 23:47:13 36° NE
Cosmos 1844 4.3 23:42:34 10° N 23:47:05 34° NE 23:47:05 34° NE
Resurs 1-3 3.4 23:44:57 10° SSE 23:49:14 74° ENE 23:53:33 10° N
SWAS 4.1 23:48:41 10° SSW 23:52:44 77° ESE 23:52:55 75° E
Gbstr 26 Del rocket 4.1 23:49:40 10° WNW 23:53:00 26° N 23:53:00 26° N
Cosmos 2082 3.8 23:47:57 10° NNW 23:53:42 79° WSW 23:59:24 10° SSE
CZ-2D R/B 3.5 23:51:16 10° S 23:55:27 77° WSW 23:59:35 10° NNW
